EW5963 Weather Reports


Display with metric or nautical units.
time (UTC)temp
F
wind
direction
speed
MPH
gust
MPH
rain 1hr
in
rain 24hr
in
rain mn
in
humidity
%
barometer
mb
20260506231629 86 130 9.0 13.0 0.00 0.00 0.00 72 1007.0
20260506231129 86 133 5.0 12.0 0.00 0.00 0.00 71 1007.0
20260506230629 86 125 6.0 13.0 0.00 0.00 0.00 71 1007.0
20260506230129 86 114 7.0 13.0 0.00 0.00 0.00 71 1006.9
20260506225628 87 124 5.0 13.0 0.00 0.00 0.00 72 1006.9
20260506225129 87 120 5.0 13.0 0.00 0.00 0.00 71 1007.0
20260506224629 87 125 7.0 13.0 0.00 0.00 0.00 70 1007.0
20260506224129 87 87 7.0 10.0 0.00 0.00 0.00 70 1007.0
20260506223629 87 131 5.0 10.0 0.00 0.00 0.00 70 1007.0
20260506222629 87 113 8.0 13.0 0.00 0.00 0.00 69 1006.9
20260506222129 87 138 5.0 12.0 0.00 0.00 0.00 69 1006.8
20260506221129 87 110 7.0 15.0 0.00 0.00 0.00 69 1006.7
20260506220628 88 130 6.0 15.0 0.00 0.00 0.00 69 1006.7
20260506215629 87 0 8.0 12.0 0.00 0.00 0.00 68 1006.7
20260506215129 87 90 6.0 10.0 0.00 0.00 0.00 68 1006.7
20260506214629 87 141 5.0 10.0 0.00 0.00 0.00 68 1006.7
20260506214128 87 116 6.0 11.0 0.00 0.00 0.00 68 1006.8
20260506213129 87 147 4.0 11.0 0.00 0.00 0.00 69 1006.8
20260506212629 87 130 7.0 11.0 0.00 0.00 0.00 70 1006.8
20260506211629 87 144 5.0 12.0 0.00 0.00 0.00 70 1007.0
20260506211129 87 130 6.0 11.0 0.00 0.00 0.00 70 1007.0
20260506210128 86 109 5.0 11.0 0.00 0.00 0.00 70 1007.0
20260506205129 87 154 6.0 10.0 0.00 0.00 0.00 71 1007.2
20260506204628 86 113 4.0 10.0 0.00 0.00 0.00 72 1007.2
20260506203629 86 138 7.0 9.0 0.00 0.00 0.00 72 1007.3
20260506203129 85 127 3.0 9.0 0.00 0.00 0.00 72 1007.5
20260506202128 85 175 4.0 9.0 0.00 0.00 0.00 72 1007.4
20260506201629 85 142 4.0 9.0 0.00 0.00 0.00 72 1007.6
20260506200629 86 152 6.0 10.0 0.00 0.00 0.00 71 1007.7
20260506200128 86 125 4.0 9.0 0.00 0.00 0.00 71 1007.8
20260506195629 86 106 5.0 9.0 0.00 0.00 0.00 72 1007.9
20260506195129 86 78 5.0 9.0 0.00 0.00 0.00 72 1007.9
20260506194629 86 124 3.0 9.0 0.00 0.00 0.00 72 1007.9
20260506194129 86 120 4.0 10.0 0.00 0.00 0.00 73 1008.0
20260506193629 85 111 4.0 10.0 0.00 0.00 0.00 73 1008.2
20260506193129 85 133 3.0 9.0 0.00 0.00 0.00 74 1008.3
20260506192630 85 230 4.0 7.0 0.00 0.00 0.00 75 1008.3
20260506192129 84 172 4.0 7.0 0.00 0.00 0.00 75 1008.3
20260506191629 84 176 4.0 7.0 0.00 0.00 0.00 75 1008.4
20260506191129 84 169 2.0 6.0 0.00 0.00 0.00 76 1008.5
20260506190628 84 127 4.0 6.0 0.00 0.00 0.00 75 1008.5
20260506190128 83 138 2.0 10.0 0.00 0.00 0.00 76 1008.6
20260506185629 83 121 6.0 10.0 0.00 0.00 0.00 76 1008.6
20260506185129 83 73 2.0 5.0 0.00 0.00 0.00 77 1008.6
20260506184629 83 118 3.0 4.0 0.00 0.00 0.00 76 1008.6
20260506184129 82 0 0.0 5.0 0.00 0.00 0.00 76 1008.7
20260506183628 82 173 2.0 6.0 0.00 0.00 0.00 76 1008.8
20260506183129 82 169 2.0 6.0 0.00 0.00 0.00 77 1008.9
20260506182629 82 130 3.0 5.0 0.00 0.00 0.00 77 1008.9
20260506182129 82 154 0.0 4.0 0.00 0.00 0.00 77 1009.0
20260506181629 82 75 3.0 4.0 0.00 0.00 0.00 77 1009.1
20260506181129 82 137 3.0 5.0 0.00 0.00 0.00 77 1009.2
20260506180628 82 114 2.0 5.0 0.00 0.00 0.00 77 1009.2
20260506180129 82 141 3.0 4.0 0.00 0.00 0.00 78 1009.2
20260506175629 82 58 0.0 4.0 0.00 0.00 0.00 78 1009.2
20260506175128 81 66 2.0 3.0 0.00 0.00 0.00 78 1009.3
20260506174629 81 80 0.0 3.0 0.00 0.00 0.00 78 1009.3
20260506174128 81 83 0.0 2.0 0.00 0.00 0.00 78 1009.3
20260506173631 81 123 0.0 4.0 0.00 0.00 0.00 78 1009.3
20260506173131 81 290 0.0 4.0 0.00 0.00 0.00 79 1009.3
20260506172630 81 190 2.0 4.0 0.00 0.00 0.00 79 1009.3
20260506172130 80 56 0.0 3.0 0.00 0.00 0.00 79 1009.4
20260506171630 80 178 2.0 4.0 0.00 0.00 0.00 79 1009.4
20260506171129 80 127 1.0 5.0 0.00 0.00 0.00 79 1009.3
20260506170130 80 206 2.0 4.0 0.00 0.00 0.00 79 1009.2
20260506165630 80 183 2.0 6.0 0.00 0.00 0.00 79 1009.1
20260506164630 80 111 3.0 7.0 0.00 0.00 0.00 79 1009.1
20260506164130 80 109 2.0 7.0 0.00 0.00 0.00 79 1009.1
20260506163128 80 131 4.0 13.0 0.00 0.00 0.00 79 1008.8
20260506162628 80 161 5.0 13.0 0.00 0.00 0.00 79 1008.8
20260506162130 80 149 6.0 14.0 0.00 0.00 0.00 79 1008.7
20260506161630 80 137 6.0 14.0 0.00 0.00 0.00 79 1008.7
20260506161129 80 125 6.0 13.0 0.00 0.00 0.00 78 1008.7
20260506160629 80 151 8.0 12.0 0.00 0.00 0.00 78 1008.7
20260506160129 80 157 4.0 12.0 0.00 0.00 0.00 78 1008.6
20260506155629 80 176 8.0 14.0 0.00 0.00 0.00 78 1008.5
20260506155129 80 202 7.0 14.0 0.00 0.00 0.00 78 1008.3
20260506154629 80 148 6.0 14.0 0.00 0.00 0.00 79 1008.3
20260506154128 80 186 7.0 14.0 0.00 0.00 0.00 79 1008.3
20260506153629 80 140 5.0 11.0 0.00 0.00 0.00 79 1008.3
20260506153129 80 120 7.0 13.0 0.00 0.00 0.00 79 1008.3
20260506152129 80 149 6.0 14.0 0.00 0.00 0.00 80 1008.2
20260506151629 80 124 8.0 14.0 0.00 0.00 0.00 80 1008.1
20260506150628 79 158 4.0 17.0 0.00 0.00 0.00 80 1008.1
20260506150128 79 142 8.0 17.0 0.00 0.00 0.00 80 1008.0
20260506145128 79 162 7.0 12.0 0.00 0.00 0.00 81 1007.9
20260506144629 79 169 8.0 14.0 0.00 0.00 0.00 81 1007.9
20260506144128 79 190 8.0 14.0 0.00 0.00 0.00 82 1007.9
20260506143628 78 140 8.0 13.0 0.00 0.00 0.00 82 1007.8
20260506143128 78 165 9.0 13.0 0.00 0.00 0.00 82 1007.7
20260506142628 78 140 7.0 13.0 0.00 0.00 0.00 83 1007.8
20260506142128 78 161 7.0 13.0 0.00 0.00 0.00 83 1007.9
20260506141627 78 113 8.0 14.0 0.00 0.00 0.00 83 1007.9
20260506141127 77 134 8.0 14.0 0.00 0.00 0.00 83 1007.9
20260506140627 77 200 7.0 14.0 0.00 0.00 0.00 83 1007.9
20260506140127 77 138 7.0 14.0 0.00 0.00 0.00 83 1007.8
20260506135627 77 127 10.0 14.0 0.00 0.00 0.00 83 1007.8
20260506135127 77 116 6.0 14.0 0.00 0.00 0.00 84 1007.8
20260506134627 76 110 5.0 11.0 0.00 0.00 0.00 84 1007.8
20260506134127 76 147 6.0 13.0 0.00 0.00 0.00 84 1007.8
20260506133627 76 110 7.0 13.0 0.00 0.00 0.00 84 1007.7
20260506133127 76 134 5.0 11.0 0.00 0.00 0.00 84 1007.8
20260506132626 76 124 8.0 11.0 0.00 0.00 0.00 84 1007.8
20260506132127 76 134 5.0 10.0 0.00 0.00 0.00 84 1007.8
20260506131627 76 127 4.0 10.0 0.00 0.00 0.00 84 1007.9
20260506131126 76 138 5.0 10.0 0.00 0.00 0.00 84 1007.9
20260506130126 76 73 6.0 10.0 0.00 0.00 0.00 84 1007.8
20260506125626 76 0 4.0 12.0 0.00 0.00 0.00 84 1007.8
20260506124626 75 114 4.0 10.0 0.00 0.00 0.00 84 1007.7
20260506124125 75 102 6.0 10.0 0.00 0.00 0.00 84 1007.6
20260506123126 75 94 6.0 10.0 0.00 0.00 0.00 84 1007.5
20260506122625 75 94 6.0 11.0 0.00 0.00 0.00 84 1007.4
20260506121625 75 106 6.0 12.0 0.00 0.00 0.00 84 1007.5
20260506121128 75 120 6.0 11.0 0.00 0.00 0.00 84 1007.5
20260506120625 75 111 7.0 12.0 0.00 0.00 0.00 84 1007.5
20260506120125 75 104 8.0 12.0 0.00 0.00 0.00 84 1007.3
20260506115625 75 102 5.0 9.0 0.00 0.00 0.00 84 1007.3
20260506115125 75 93 6.0 9.0 0.00 0.00 0.00 84 1007.3
20260506114625 75 92 6.0 9.0 0.00 0.00 0.00 84 1007.3
20260506114123 75 120 5.0 9.0 0.00 0.00 0.00 84 1007.3
20260506113622 75 113 4.0 7.0 0.00 0.00 0.00 84 1007.4
20260506113123 75 106 5.0 7.0 0.00 0.00 0.00 84 1007.3
20260506112125 75 121 6.0 11.0 0.00 0.00 0.00 84 1007.3
20260506111624 75 135 4.0 11.0 0.00 0.00 0.00 83 1007.2
20260506111124 75 107 5.0 9.0 0.00 0.00 0.00 83 1007.2
20260506110624 75 0 5.0 10.0 0.00 0.00 0.00 83 1007.2
20260506110123 75 97 6.0 10.0 0.00 0.00 0.00 83 1007.2
20260506105624 75 116 6.0 9.0 0.00 0.00 0.00 83 1007.2
20260506105124 75 97 4.0 9.0 0.00 0.00 0.00 83 1007.3
20260506104624 75 123 4.0 9.0 0.00 0.00 0.00 83 1007.2
20260506104123 75 104 5.0 10.0 0.00 0.00 0.00 83 1007.2
20260506103624 75 92 6.0 10.0 0.00 0.00 0.00 83 1007.3
20260506103123 75 109 5.0 10.0 0.00 0.00 0.00 83 1007.3
20260506102124 75 103 4.0 7.0 0.00 0.00 0.00 82 1007.4
20260506101623 75 94 5.0 9.0 0.00 0.00 0.00 82 1007.3
20260506100623 76 93 5.0 9.0 0.00 0.00 0.00 82 1007.3
20260506100123 76 107 5.0 9.0 0.00 0.00 0.00 82 1007.2
20260506095123 76 107 4.0 9.0 0.00 0.00 0.00 82 1007.2
20260506094622 76 102 5.0 9.0 0.00 0.00 0.00 81 1007.2
20260506093623 76 0 5.0 10.0 0.00 0.00 0.00 81 1007.3
20260506093122 76 120 6.0 9.0 0.00 0.00 0.00 81 1007.3
20260506092122 76 76 4.0 11.0 0.00 0.00 0.00 81 1007.2
20260506091622 76 113 5.0 11.0 0.00 0.00 0.00 81 1007.3
20260506090622 76 117 5.0 11.0 0.00 0.00 0.00 81 1007.3
20260506090122 76 133 6.0 11.0 0.00 0.00 0.00 81 1007.2
20260506085122 76 127 5.0 10.0 0.00 0.00 0.00 81 1007.1
20260506084621 76 176 4.0 12.0 0.00 0.00 0.00 81 1007.0
20260506084122 76 147 6.0 13.0 0.00 0.00 0.00 81 1007.0
20260506083621 76 128 5.0 13.0 0.00 0.00 0.00 81 1006.9
20260506083121 76 128 6.0 12.0 0.00 0.00 0.00 81 1007.0
20260506082622 76 124 6.0 12.0 0.00 0.00 0.00 81 1007.0
20260506082121 76 87 6.0 13.0 0.00 0.00 0.00 81 1007.1
20260506081622 76 116 7.0 14.0 0.00 0.00 0.00 81 1007.1
20260506081121 76 158 9.0 14.0 0.00 0.00 0.00 81 1007.1
20260506080621 76 121 6.0 13.0 0.00 0.00 0.00 81 1007.0
20260506080121 76 110 8.0 12.0 0.00 0.00 0.00 81 1007.1
20260506073121 76 116 9.0 16.0 0.00 0.00 0.00 82 1007.2
20260506072620 76 110 8.0 15.0 0.00 0.00 0.00 82 1007.2
20260506072120 76 131 5.0 12.0 0.00 0.00 0.00 82 1007.3
20260506071620 76 85 5.0 12.0 0.00 0.00 0.00 82 1007.3
20260506071122 76 135 5.0 12.0 0.00 0.00 0.00 82 1007.3
20260506070620 76 140 6.0 16.0 0.00 0.00 0.00 82 1007.3
20260506070120 76 135 8.0 16.0 0.00 0.00 0.00 82 1007.3
20260506062119 76 130 5.0 12.0 0.00 0.00 0.00 82 1007.6
20260506061620 76 113 5.0 17.0 0.00 0.00 0.00 82 1007.7
20260506061119 76 131 6.0 17.0 0.00 0.00 0.00 82 1007.6
20260506060118 76 125 8.0 18.0 0.00 0.00 0.00 82 1007.6
20260506050618 76 133 9.0 14.0 0.00 0.00 0.00 82 1008.0
20260506050118 76 144 6.0 14.0 0.00 0.00 0.00 82 1008.0
20260506045117 76 144 6.0 13.0 0.00 0.00 0.00 82 1008.1
20260506044618 76 130 6.0 15.0 0.00 0.00 0.00 82 1007.9
20260506043617 76 148 7.0 18.0 0.00 0.00 0.00 82 1007.9
20260506043117 76 145 11.0 18.0 0.00 0.00 0.00 82 1007.9
20260506042618 76 110 8.0 13.0 0.00 0.00 0.00 82 1007.8
20260506042118 76 151 9.0 13.0 0.00 0.00 0.00 82 1007.9
20260506041617 76 159 6.0 15.0 0.00 0.00 0.00 82 1007.8
20260506041117 76 151 7.0 15.0 0.00 0.00 0.00 82 1007.7
20260506040617 76 141 8.0 14.0 0.00 0.00 0.00 81 1007.6
20260506040117 76 148 7.0 17.0 0.00 0.00 0.00 81 1007.5
20260506035617 76 110 9.0 17.0 0.00 0.00 0.00 81 1007.3
20260506035117 76 148 10.0 17.0 0.00 0.00 0.00 81 1007.1
20260506034616 76 154 7.0 13.0 0.00 0.00 0.00 81 1007.1
20260506034116 76 130 8.0 15.0 0.00 0.00 0.00 81 1007.1
20260506033617 76 158 9.0 16.0 0.00 0.00 0.00 81 1007.0
20260506033116 76 123 9.0 16.0 0.00 0.00 0.00 81 1006.9
20260506032616 76 145 9.0 14.0 0.00 0.00 0.00 81 1006.8
20260506032117 76 127 8.0 16.0 0.00 0.00 0.00 81 1006.7
20260506031616 76 190 6.0 16.0 0.00 0.00 0.00 81 1006.7
20260506031116 76 130 6.0 16.0 0.00 0.00 0.00 80 1006.7
20260506030616 76 127 7.0 14.0 0.00 0.00 0.00 80 1006.7
20260506030115 76 127 9.0 16.0 0.00 0.00 0.00 80 1006.6
20260506025615 77 127 12.0 16.0 0.00 0.00 0.00 80 1006.5
20260506025116 77 124 8.0 17.0 0.00 0.00 0.00 80 1006.5
20260506024615 77 128 10.0 17.0 0.00 0.00 0.00 80 1006.4
20260506024115 77 135 7.0 19.0 0.00 0.00 0.00 80 1006.4
20260506023616 77 151 10.0 19.0 0.00 0.00 0.00 80 1006.2
20260506023115 77 137 9.0 15.0 0.00 0.00 0.00 80 1006.3
20260506022615 77 159 9.0 15.0 0.00 0.00 0.00 79 1006.3
20260506022115 78 151 8.0 18.0 0.00 0.00 0.00 79 1006.2
20260506021615 78 149 8.0 18.0 0.00 0.00 0.00 79 1006.3
20260506021114 78 137 9.0 15.0 0.00 0.00 0.00 79 1006.1
20260506020615 78 151 11.0 16.0 0.00 0.00 0.00 79 1006.0
20260506020114 78 107 6.0 16.0 0.00 0.00 0.00 78 1006.0
20260506015112 78 94 9.0 18.0 0.00 0.00 0.00 78 1006.0
20260506014613 78 0 9.0 15.0 0.00 0.00 0.00 78 1006.0
20260506013615 79 114 8.0 13.0 0.00 0.00 0.00 78 1005.8
20260506013114 79 144 8.0 16.0 0.00 0.00 0.00 77 1005.8
20260506012114 79 137 8.0 19.0 0.00 0.00 0.00 77 1005.8
20260506011614 79 145 11.0 19.0 0.00 0.00 0.00 77 1005.7
20260506010615 80 123 9.0 14.0 0.00 0.00 0.00 76 1005.6
20260506010113 80 134 9.0 17.0 0.00 0.00 0.00 76 1005.5
20260506005114 80 141 8.0 20.0 0.00 0.00 0.00 75 1005.3
20260506004613 81 134 11.0 20.0 0.00 0.00 0.00 75 1005.3
20260506003613 81 157 11.0 21.0 0.00 0.00 0.00 74 1005.3
20260506003113 81 140 13.0 21.0 0.00 0.00 0.00 74 1005.2
20260506002113 82 168 13.0 19.0 0.00 0.00 0.00 73 1005.1
20260506001613 82 154 11.0 20.0 0.00 0.00 0.00 73 1005.0
20260506001112 82 135 11.0 20.0 0.00 0.00 0.00 73 1005.0
20260506000613 82 140 9.0 20.0 0.00 0.00 0.00 73 1004.9
20260506000113 83 169 11.0 21.0 0.00 0.00 0.00 73 1004.8
20260505235613 83 140 11.0 21.0 0.00 0.00 0.00 73 1004.8
20260505235113 83 111 11.0 19.0 0.00 0.00 0.00 73 1004.8
20260505234613 83 110 12.0 20.0 0.00 0.00 0.00 73 1004.9
20260505234113 83 137 13.0 20.0 0.00 0.00 0.00 73 1004.6
20260505233612 83 0 12.0 23.0 0.00 0.00 0.00 73 1004.6
20260505232612 83 114 10.0 28.0 0.00 0.00 0.00 72 1004.8
20260505232112 83 121 14.0 28.0 0.00 0.00 0.00 72 1004.7